Regional Weather Roundup
Issued by NWS Kansas City/Pleasant Hill, MO

Home | Current Version | Previous Version | Graphics & Text | Print | Product List | Glossary Off
Versions: 1 2 3 4 5 6 7 8 9 10 11 12 13 14 15 16 17 18 19 20 21 22 23 24 25 26 27 28 29 30 31 32 33 34 35 36 37 38 39 40 41 42 43 44 45 46 47 48 49 50

141
ASUS43 KEAX 080110
RWREAX

WEATHER ROUNDUP FOR EASTERN KANSAS AND NORTHWEST MISSOURI
NATIONAL WEATHER SERVICE KANSAS CITY/PLEASANT HILL MO
700 PM CST WED DEC 07 2016

KSZ040-057-103>105-MOZ028-029-037-043-080200-
...KANSAS CITY METROPOLITAN AREA...

CITY           SKY/WX    TMP DP  RH WIND       PRES   REMARKS
K.C. INTL      PTCLDY    22  10  60 NW6       30.40R WCI  14
K.C. DOWNTOWN  PTCLDY    26  12  55 NW8       30.41R WCI  18
LEES SUMMIT    MOCLDY    25  13  60 NW14      30.39R WCI  13
OLATHE - IXD   PTCLDY    24  16  71 NW12      30.40R WCI  13
OLATHE - OJC   MOCLDY    24  15  68 NW9       30.39R WCI  14
LAWRENCE       CLEAR     20  15  81 NW7       30.43R WCI  11

$$

MOZ001>008-011>017-020>025-030>033-038>040-044>046-053-054-080200-
...NORTHERN AND CENTRAL MISSOURI...

CITY           SKY/WX    TMP DP  RH WIND       PRES   REMARKS
ST. JOSEPH     CLEAR     19  10  68 W6        30.42R WCI  11
MOSBY          CLEAR     27  12  54 NW9       30.41R WCI  17
WARRENSBURG    CLOUDY    27  19  74 W6        30.39R WCI  20
WHITEMAN AFB   NOT AVBL
CLINTON        CLOUDY    27  25  93 NW5       30.39R WCI  21
SEDALIA        CLOUDY    27  22  81 W9        30.37R WCI  18
WARSAW         NOT AVBL
CHILLICOTHE      N/A     24  11  57 NW8       30.39R WCI  15
KIRKSVILLE     PTCLDY    24  11  57 NW18G24   30.32R WCI  10

$$

MOZ041-047>049-056>058-063>065-088>090-097-080200-
...EASTERN AND SOUTHERN MISSOURI...

CITY           SKY/WX    TMP DP  RH WIND       PRES   REMARKS
ST. LOUIS INTL CLOUDY    36  18  48 NW12      30.28R WCI  28
SPIRIT OF STL  CLOUDY    35  20  54 NW9       30.29R WCI  28
COLUMBIA       CLOUDY    28  21  75 W9        30.33R WCI  19
JEFFERSON CITY CLOUDY    30  22  72 W8        30.35R WCI  22
ROLLA          LGT SNOW  28  25  88 W8        30.30R FOG     WCI  20
OSAGE BEACH    LGT SNOW  29  27  92 W3        30.36R FOG
SPRINGFIELD    LGT SNOW  29  25  85 N13       30.32R FOG     WCI  19
BRANSON        CLOUDY    32  18  55 N9        30.30R WCI  24
JOPLIN         CLOUDY    29  25  85 N10G20    30.38R WCI  20
WEST PLAINS    CLOUDY    35  18  49 N10       30.28R WCI  27

$$

IAZ060-094-KSZ022-034>040-054-083-096-NEZ052-066-093-080200-
...KANSAS...SOUTHEAST NEBRASKA AND IOWA...

CITY           SKY/WX    TMP DP  RH WIND       PRES   REMARKS
TOPEKA         CLEAR     24  13  62 W5        30.43R WCI  18
MANHATTAN      CLEAR     21  11  65 CALM      30.45R
EMPORIA        CLEAR     22  18  85 NW7       30.42R WCI  13
CHANUTE        MOCLDY    27  23  85 N9        30.41R WCI  18
WICHITA        PTCLDY    25  19  78 N16       30.42R WCI  12
OMAHA          CLEAR     20   7  57 NW13      30.39R WCI   7
LINCOLN        CLEAR     20   6  55 NW10      30.43R WCI   9
FALLS CITY     CLEAR     19  10  68 NW7       30.41R WCI  10
LAMONI         CLEAR     19  11  70 W12       30.32R WCI   7
DES MOINES     PTCLDY    21   9  59 NW15      30.30R WCI   8

$$





USA.gov is the U.S. government's official web portal to all federal, state and local government web resources and services.